Location: Santa Cristina
(46.5667°N, 11.7167°E)
Time: 03:51:36
(UTC+00:00)

Spot 1 - Pass Details

Date: 21 April 2021
Orbit: 576 x 776 km, 98.7° (Epoch: 10 May)

Event Time Altitude Azimuth Distance (km) Brightness Sun altitude
Exits shadow 01:59:50 50° 186° (S) 769 4.2 -20.5°
Maximum altitude 02:00:51 74° 256° (WSW) 629 3.9 -20.4°
Drops below altitude 10° 02:05:10 10° 342° (NNW) 2,004 7.0 -19.9°
Sets 02:07:26 0° 345° (NNW) 2,946 7.9 -19.6°
